Temp_Advection
nan nan nan nan nan nan nan nan nan nan nan nan nan nan nan nan nan nan nan nan nan nan nan nan nan nan nan nan nan nan nan nan nan nan nan nan nan nan nan nan nan nan
nan 0 0 0 0 0 -0 -0 -0 0 0 -0 -0 0 0 0 0 0 0 0 0 0 -0 -0 -0 0 0 0 0 0 0 0 -0 -0 -0 -0 -0 0 -0 -0 -0 nan
nan 0 0 0 0 -0 -0 -0 -0 0 0 0 0 0 0 0 0 0 0 0 0 -0 -0 -0 -0 -0 0 0 0 0 0 -0 -0 -0 -0 -0 -0 0 -0 -0 -0 nan
nan 0 0 0 0 -0 -0 -0 -0 -0 -0 -0 -0 0 0 0 -0 0 0 0 -0 -0 -0 -0 -0 0 0 0 0 0 -0 -0 -0 -0 -0 -0 0 0 -0 -0 -0 nan
nan 0 0 0 -0 -0 -0 -0 -0 -0 -0 -0 -0 -0 -0 0 0 -0 -0 -0 -0 -0 -0 -0 -0 0 0 0 0 -0 -0 -0 -0 -0 -0 0 0 -0 -0 -0 -0 nan
nan 0 0 0 -0 -0 -0 -0 -0 -0 -0 0 0 -0 -0 0 -0 -0 -0 -0 -0 -0 -0 -0 -0 0 0 0 0 -0 -0 -0 -0 -0 -0 0 0 -0 -0 -0 -0 nan
nan 0 0 -0 -0 0 -0 -0 -0 -0 0 0 0 0 0 0 -0 -0 -0 -0 -0 -0 0 0 -0 0 0 0 -0 -0 -0 -0 -0 0 -0 -0 -0 -0 -0 -0 -0 nan
nan 0 0 0 0 0 0 -0 -0 -0 0 0 0 0 0 0 -0 -0 -0 -0 -0 0 0 0 -0 0 0 0 -0 -0 -0 -0 -0 -0 0 -0 -0 -0 -0 -0 -0 nan
nan 0 0 0 0 0 0 -0 -0 0 0 0 0 0 0 -0 -0 -0 -0 -0 -0 -0 0 0 0 0 0 0 -0 -0 -0 -0 -0 -0 -0 -0 -0 -0 -0 0 -0 nan
nan 0 1 0 0 0 -0 -0 -0 0 0 0 -0 -0 -0 -0 -0 -0 0 0 -0 -0 0 0 0 0 0 0 -0 -0 -0 -0 -0 -0 -0 -0 -0 -0 0 0 -0 nan
nan 0 0 0 0 -0 -0 0 0 0 -0 -0 -0 -0 -0 -0 -0 0 0 0 -0 0 0 0 0 0 0 0 -0 -0 -0 -0 -0 -0 -0 -0 0 0 0 -0 -0 nan
nan 0 0 0 0 -0 -0 0 0 0 -0 -0 -0 -0 -0 0 0 0 -0 -0 0 0 0 0 0 0 0 0 -0 -0 -0 -0 -0 0 0 0 0 0 0 -0 -0 nan
nan -0 0 0 0 0 0 0 0 0 0 0 0 0 0 0 0 -0 -0 0 0 0 0 0 0 0 0 0 0 -0 -0 -0 0 0 0 0 0 -0 -0 -0 -0 nan
nan 0 0 0 0 0 0 0 0 0 -0 -0 0 0 0 0 -0 -0 0 0 0 0 0 0 0 0 -0 -0 0 0 0 0 0 0 -0 -0 -0 -0 0 -0 -0 nan
nan 0 0 0 0 0 -0 -0 -0 -0 -0 -0 -0 -0 -0 -0 0 0 0 0 0 0 0 0 -0 -0 -0 0 0 0 0 0 0 -0 -0 -0 -0 -0 0 0 0 nan
nan 0 0 0 -0 -0 -0 -0 -0 0 0 -0 -0 -0 -0 -0 0 0 0 0 -0 -0 -0 -0 -0 -0 0 0 0 0 0 0 0 -0 -0 -0 -0 -0 -0 0 0 nan
nan 1 0 0 -0 0 0 0 0 0 0 -0 0 0 0 0 0 0 0 -0 -0 -0 -0 -0 -0 -0 -0 -0 0 0 0 -0 0 0 -0 -0 -0 -0 -0 -0 -0 nan
nan 0 0 -0 -0 0 0 0 0 0 0 0 0 0 0 0 0 0 0 -0 -0 -0 -0 -0 -0 -0 -0 -0 -0 0 0 0 0 0 -0 -0 -0 -0 -0 -0 -0 nan
nan -0 -1 -1 -0 1 1 1 0 0 0 0 0 0 0 0 0 0 0 -0 -0 -0 -0 -0 -0 -0 -0 -0 -0 0 0 0 0 -0 -0 -0 -0 -0 0 0 0 nan
nan -1 -0 0 -0 1 1 1 0 0 0 0 0 0 0 0 0 0 -0 -0 -0 -0 -0 -0 -0 -0 -0 -0 0 0 0 0 0 -0 -0 -0 -0 0 0 0 0 nan
nan -1 1 1 0 1 1 1 0 0 0 0 0 0 0 0 0 -0 -0 -0 -0 -0 -0 -0 -0 -0 -0 -0 0 0 0 0 0 -0 -0 0 0 0 0 0 0 nan
nan 0 1 0 0 0 0 0 0 0 0 0 0 0 0 0 0 -0 -0 -0 -0 -0 -0 -0 -0 -0 0 -0 -0 0 0 0 0 0 0 0 0 0 0 0 0 nan
nan 1 1 0 0 0 0 1 1 0 0 -0 -0 0 1 0 0 0 0 0 0 0 -0 -0 0 0 0 0 0 0 0 0 0 0 0 0 0 0 0 0 0 nan
nan 0 1 1 0 0 0 0 -0 -0 -0 -0 -0 1 1 0 0 0 0 0 0 0 -0 -0 -0 -0 -0 -0 -0 0 0 0 0 0 0 0 0 0 0 0 0 nan
nan 1 1 0 -0 0 0 0 -0 -0 0 -0 0 0 1 0 -0 -0 0 0 -0 -0 -0 -0 -0 -0 -0 -0 -0 -0 0 0 0 0 0 0 0 -0 -0 0 0 nan
nan nan nan nan nan nan nan nan nan nan nan nan nan nan nan nan nan nan nan nan nan nan nan nan nan nan nan nan nan nan nan nan nan nan nan nan nan nan nan nan nan nan
Wind_Speed
19 18 17 15 13 11 11 11 10 10 11 11 13 13 12 11 11 11 11 10 10 10 10 9 9 9 9 9 9 8 8 7 7 8 8 9 9 9 9 9 9 9
20 19 17 16 14 13 12 11 10 10 10 10 11 12 12 11 11 11 11 11 11 11 11 11 10 10 10 10 10 9 9 9 9 9 9 9 9 9 9 10 10 10
21 20 19 17 17 15 13 12 11 10 10 10 10 10 11 11 11 11 11 11 12 12 12 12 12 11 11 11 10 10 11 11 10 10 10 10 10 9 9 10 10 11
22 21 19 19 18 17 15 14 13 12 12 11 10 10 11 11 11 11 11 12 12 13 13 14 13 12 11 11 11 11 12 12 12 11 11 10 10 10 9 10 10 11
22 21 20 19 19 18 17 16 15 14 14 13 12 12 12 12 11 12 12 12 13 14 14 14 14 13 12 12 11 12 12 12 12 12 12 11 11 11 10 10 10 11
22 21 20 20 20 19 18 17 17 16 15 14 13 13 13 13 13 13 13 14 14 14 14 14 14 14 13 12 12 13 13 13 13 13 13 12 12 12 12 11 11 11
22 22 21 21 20 19 19 18 18 17 16 15 14 14 14 14 14 14 14 15 15 15 15 15 15 15 14 13 13 13 13 13 13 13 13 13 13 13 13 12 12 12
22 22 22 22 21 20 19 18 18 18 16 15 14 14 14 15 15 15 15 15 16 16 16 16 16 15 15 14 14 14 13 13 13 13 13 14 14 13 13 13 13 13
23 23 22 22 21 21 20 19 18 17 16 16 15 15 15 15 15 15 15 15 15 16 16 16 16 15 15 15 14 14 13 13 13 13 14 14 14 14 13 13 14 14
24 23 23 22 22 21 20 19 18 17 16 16 16 16 16 16 15 15 15 15 15 15 15 15 14 14 14 15 15 15 14 14 14 14 14 14 14 13 13 14 14 15
25 24 23 22 22 21 20 18 18 17 17 17 17 16 16 15 15 15 15 15 15 14 14 14 13 13 14 15 15 15 15 14 14 14 14 14 14 13 13 14 15 15
25 25 24 23 22 21 20 19 18 18 18 18 17 17 16 15 15 15 15 15 14 14 14 14 13 14 15 15 15 16 15 15 15 15 14 14 14 13 13 14 15 15
25 24 24 23 22 21 21 20 19 19 19 18 18 17 16 16 16 16 15 15 15 15 15 15 15 15 15 16 16 16 16 16 16 15 14 14 14 14 14 15 15 15
25 24 23 23 23 22 22 22 21 20 20 19 19 18 17 17 16 16 15 15 15 15 15 15 15 15 16 16 16 16 16 16 16 16 15 15 15 15 15 15 16 16
25 24 23 23 23 24 24 24 23 21 20 20 19 18 18 17 17 16 16 15 15 15 15 15 15 16 15 15 15 16 16 16 16 16 16 15 15 15 15 14 15 16
27 25 23 23 24 24 24 23 23 21 20 20 19 19 19 18 18 18 17 16 15 15 15 15 15 15 15 14 15 16 16 16 15 16 15 14 14 15 14 14 15 16
28 26 24 23 24 24 23 23 23 22 21 20 19 19 20 19 19 19 18 17 16 15 15 15 16 15 15 15 16 15 15 15 15 15 14 13 14 14 14 14 15 15
27 26 24 23 23 24 23 23 23 22 20 20 19 20 20 20 20 20 19 18 17 16 15 15 16 16 15 16 16 15 14 14 15 15 15 14 14 15 15 15 15 15
26 24 23 22 23 24 23 23 23 22 21 20 20 20 21 22 22 21 20 19 17 16 15 15 16 16 15 16 15 15 15 16 16 16 16 16 16 16 16 16 16 16
27 25 24 24 23 23 23 22 22 22 22 22 22 21 21 22 23 22 22 20 18 17 16 16 17 17 17 17 17 17 17 18 18 18 18 17 17 17 17 17 17 17
28 26 26 26 25 23 23 22 22 22 22 22 22 22 22 22 22 22 23 22 20 19 18 18 18 18 18 18 19 19 19 19 19 19 20 19 19 19 19 19 20 19
31 27 24 24 23 21 21 21 21 22 22 21 20 21 21 22 21 21 22 22 21 20 20 20 19 19 19 19 20 20 20 20 20 20 20 20 21 21 20 21 21 21
30 27 24 23 22 20 21 20 19 19 19 19 18 18 19 21 21 20 20 19 19 19 19 19 20 20 20 21 21 22 22 21 21 21 21 22 22 22 22 22 22 22
23 22 21 20 18 17 18 18 17 17 16 16 16 16 17 18 18 18 17 16 17 18 18 19 20 21 22 23 23 23 23 23 23 22 22 22 23 23 24 23 23 23
13 13 14 14 14 14 15 15 16 17 17 17 16 14 14 15 16 15 15 16 17 18 19 20 21 23 24 24 24 24 24 24 23 23 23 23 24 24 25 25 26 26
11 9 10 10 10 11 13 13 14 15 15 16 15 13 11 12 13 14 15 16 18 19 20 21 22 23 23 24 24 24 24 25 24 24 24 25 25 26 27 27 27 28
Wind_Direction
213 213 214 214 215 220 226 229 233 241 247 245 240 237 236 233 228 228 229 232 236 237 234 232 230 232 238 241 242 243 242 238 239 242 244 243 239 236 239 242 246 252
215 216 217 218 220 223 228 229 231 237 243 246 244 243 242 238 234 232 233 234 238 241 240 239 238 235 236 240 243 246 246 245 244 243 243 244 245 244 246 247 248 251
218 218 219 221 224 226 228 230 229 229 234 239 242 244 244 242 238 237 237 235 237 241 242 243 243 240 237 238 241 245 246 247 247 245 241 241 245 248 252 254 254 253
220 221 222 224 226 226 227 229 228 227 228 231 236 241 242 241 241 241 239 238 239 241 242 244 244 242 238 237 241 245 247 247 247 246 244 242 243 246 251 256 257 257
222 223 224 227 226 224 225 227 228 228 229 230 233 237 238 237 238 241 240 240 242 243 243 245 246 245 241 239 242 246 249 250 250 250 250 248 247 247 251 255 257 258
223 224 225 228 227 225 225 227 229 229 230 232 233 234 235 234 234 237 240 242 245 246 245 245 246 245 241 241 244 247 250 252 252 253 253 253 253 252 253 255 255 256
223 224 225 228 227 226 228 229 230 230 230 231 232 233 233 234 234 236 239 243 246 247 246 246 246 244 241 242 245 250 254 255 254 254 255 256 256 255 256 256 255 254
224 225 226 229 229 227 228 230 232 231 229 229 231 232 233 234 236 238 241 244 246 247 247 247 246 244 242 244 248 252 256 258 257 255 257 259 258 258 257 255 255 255
226 226 227 229 230 230 230 232 233 232 230 229 230 232 233 234 236 239 242 244 246 246 245 246 246 244 242 245 248 252 255 257 257 256 257 258 258 258 258 256 256 257
226 226 227 229 230 231 231 232 233 232 230 230 231 232 232 233 235 238 241 241 241 242 242 242 242 241 242 246 249 251 253 254 255 255 255 255 254 254 254 254 255 258
227 226 225 227 229 231 232 232 232 231 230 230 230 230 231 233 235 237 238 236 235 238 240 240 240 242 246 248 250 251 251 251 251 252 252 252 251 250 249 251 254 258
229 228 227 226 227 229 230 230 230 229 229 228 227 226 228 230 233 235 235 234 233 236 239 240 241 245 248 249 249 250 250 250 248 247 247 249 251 251 251 252 254 257
228 228 228 227 226 227 228 228 229 230 229 228 226 225 226 227 228 229 230 231 233 235 238 240 241 244 247 247 247 248 249 248 245 241 243 248 252 254 255 256 258 259
228 229 229 227 225 226 227 226 227 229 229 229 228 226 226 226 227 227 227 229 231 234 236 239 241 242 244 245 245 247 248 248 243 238 239 246 251 253 256 259 260 259
230 231 230 227 225 225 225 226 227 229 230 231 230 230 228 226 225 225 226 228 230 233 235 238 240 240 241 243 247 249 249 246 244 243 243 248 253 254 256 259 260 259
233 233 232 229 226 225 225 227 229 231 231 231 232 233 231 228 225 223 224 226 228 231 234 238 242 242 241 243 246 252 255 250 248 252 252 252 257 260 260 262 262 261
237 236 235 233 228 225 225 227 229 231 232 232 232 233 231 229 227 224 222 223 225 228 231 235 239 241 243 245 244 249 257 258 257 260 259 256 261 266 266 266 267 265
242 239 239 238 231 224 223 225 228 229 230 231 232 233 232 231 229 227 224 223 224 228 232 236 238 239 241 244 243 242 249 256 259 262 263 262 264 268 270 271 271 269
248 244 243 245 238 227 224 225 226 227 227 228 231 233 234 233 231 231 229 226 227 230 234 240 244 242 241 243 245 243 246 251 255 258 262 264 266 269 271 272 272 270
249 244 244 248 244 233 227 225 224 225 227 228 229 230 233 234 233 233 233 231 231 233 236 241 246 245 244 245 247 248 248 251 255 258 262 264 267 270 271 272 272 272
243 244 244 247 246 239 231 228 227 226 227 228 228 229 231 232 232 233 234 233 233 235 238 242 246 247 249 249 250 250 251 252 254 257 261 264 267 270 271 272 272 271
239 242 244 247 249 246 238 233 230 227 225 225 227 229 230 229 228 229 231 233 234 237 240 245 248 249 250 251 251 251 253 254 255 257 260 263 267 269 271 272 272 272
236 238 239 244 249 248 240 235 234 232 228 225 224 225 226 224 224 226 228 232 237 241 245 249 252 254 255 255 254 253 252 253 255 257 260 263 266 269 269 270 271 271
233 231 231 237 243 245 244 243 246 248 243 235 230 227 228 229 228 228 232 238 243 247 250 253 256 258 259 260 258 256 254 253 254 257 260 263 266 268 269 269 269 269
204 204 207 217 228 237 242 244 248 249 243 238 235 233 236 240 239 237 241 246 250 253 255 258 260 261 262 262 260 257 255 255 255 256 258 261 263 265 267 268 269 269
173 185 195 204 217 230 235 235 240 242 239 236 235 236 242 250 251 249 251 255 258 260 262 262 262 262 262 262 261 258 257 258 258 259 260 261 263 265 267 269 270 270
Height
1582 1583 1585 1586 1587 1588 1589 1590 1591 1592 1593 1594 1595 1596 1596 1597 1598 1599 1599 1600 1600 1601 1601 1602 1602 1603 1603 1604 1604 1605 1605 1606 1606 1606 1606 1607 1607 1607 1607 1608 1608 1608
1580 1582 1583 1584 1585 1587 1588 1589 1590 1591 1592 1593 1593 1594 1595 1596 1597 1597 1598 1599 1599 1600 1600 1601 1601 1602 1602 1603 1604 1604 1605 1605 1605 1605 1605 1606 1606 1606 1606 1607 1607 1607
1579 1580 1581 1583 1584 1585 1587 1588 1589 1590 1591 1591 1592 1593 1594 1595 1596 1596 1597 1598 1598 1599 1600 1600 1600 1601 1602 1602 1603 1603 1603 1604 1604 1604 1605 1605 1605 1605 1605 1606 1606 1606
1577 1579 1580 1581 1583 1584 1585 1586 1587 1588 1589 1590 1591 1592 1593 1593 1594 1595 1596 1596 1597 1598 1598 1599 1599 1600 1600 1601 1601 1602 1602 1603 1603 1603 1603 1604 1604 1604 1604 1605 1605 1605
1576 1577 1578 1580 1581 1582 1583 1584 1585 1586 1587 1588 1589 1590 1591 1592 1593 1594 1594 1595 1596 1597 1597 1598 1598 1599 1599 1599 1600 1601 1601 1601 1602 1602 1602 1602 1603 1603 1603 1603 1604 1604
1574 1575 1577 1578 1579 1581 1581 1582 1584 1585 1586 1587 1588 1589 1589 1590 1591 1592 1593 1594 1595 1595 1596 1596 1597 1597 1598 1598 1599 1599 1599 1600 1600 1601 1601 1601 1601 1602 1602 1602 1602 1602
1572 1573 1575 1577 1578 1579 1580 1581 1582 1583 1584 1585 1586 1587 1588 1589 1590 1590 1591 1592 1593 1594 1594 1595 1595 1596 1596 1597 1597 1597 1598 1598 1599 1599 1600 1600 1600 1600 1600 1600 1601 1601
1570 1571 1573 1575 1576 1577 1578 1579 1580 1581 1582 1583 1584 1585 1586 1587 1588 1589 1589 1590 1591 1592 1592 1593 1594 1594 1595 1595 1596 1596 1596 1597 1597 1597 1598 1598 1598 1599 1599 1599 1599 1599
1568 1569 1571 1573 1574 1575 1576 1577 1578 1579 1580 1581 1582 1583 1584 1585 1586 1587 1587 1588 1589 1590 1590 1591 1592 1592 1593 1593 1594 1594 1595 1595 1595 1596 1596 1596 1597 1597 1597 1597 1598 1598
1565 1567 1569 1570 1572 1573 1574 1576 1577 1577 1578 1579 1580 1581 1582 1583 1584 1584 1585 1586 1587 1588 1588 1589 1590 1590 1591 1592 1592 1592 1593 1593 1593 1594 1594 1595 1595 1595 1596 1596 1596 1596
1563 1564 1566 1567 1569 1571 1572 1574 1575 1575 1576 1577 1578 1579 1580 1581 1582 1582 1583 1584 1585 1586 1586 1587 1588 1588 1589 1590 1590 1590 1591 1591 1591 1592 1592 1592 1593 1593 1594 1594 1594 1594
1560 1562 1563 1565 1567 1568 1570 1571 1572 1573 1573 1574 1575 1576 1577 1578 1579 1580 1581 1582 1583 1584 1584 1585 1586 1587 1587 1588 1588 1588 1589 1589 1589 1590 1590 1591 1591 1592 1592 1592 1592 1593
1557 1559 1561 1562 1564 1566 1567 1568 1569 1570 1571 1572 1572 1573 1574 1575 1576 1577 1578 1579 1580 1581 1582 1583 1584 1584 1585 1585 1586 1586 1587 1587 1587 1588 1589 1589 1590 1590 1591 1591 1591 1591
1554 1556 1558 1560 1561 1563 1564 1565 1566 1568 1569 1570 1571 1571 1572 1573 1574 1575 1576 1577 1578 1579 1580 1581 1581 1582 1583 1583 1584 1584 1585 1585 1586 1587 1587 1587 1588 1589 1589 1589 1589 1589
1551 1553 1555 1557 1558 1560 1561 1562 1564 1565 1566 1568 1569 1570 1571 1572 1572 1573 1574 1574 1575 1576 1578 1578 1579 1580 1580 1581 1582 1582 1583 1584 1585 1585 1585 1585 1586 1586 1586 1587 1587 1587
1548 1550 1552 1554 1555 1557 1558 1560 1561 1563 1564 1566 1567 1568 1569 1570 1570 1571 1572 1573 1573 1574 1575 1576 1577 1578 1578 1579 1580 1580 1581 1582 1583 1584 1584 1584 1584 1584 1584 1585 1585 1585
1545 1547 1549 1551 1552 1554 1556 1557 1559 1561 1562 1564 1565 1566 1567 1568 1568 1569 1570 1571 1571 1572 1573 1574 1575 1576 1576 1577 1577 1578 1579 1580 1581 1582 1582 1582 1582 1582 1582 1583 1583 1583
1543 1544 1546 1548 1549 1551 1553 1554 1556 1558 1560 1561 1562 1563 1564 1565 1566 1567 1568 1569 1570 1570 1571 1572 1573 1574 1574 1575 1575 1576 1577 1577 1578 1579 1580 1580 1580 1579 1580 1580 1581 1581
1541 1542 1543 1545 1547 1549 1550 1552 1554 1555 1557 1558 1559 1560 1562 1563 1564 1565 1566 1567 1568 1569 1569 1570 1571 1571 1572 1573 1573 1574 1574 1575 1575 1576 1576 1577 1577 1577 1578 1578 1579 1579
1539 1540 1541 1542 1544 1546 1548 1549 1551 1553 1554 1555 1556 1558 1559 1560 1561 1563 1564 1565 1566 1567 1567 1568 1568 1569 1570 1571 1571 1572 1572 1572 1573 1573 1573 1574 1574 1575 1575 1576 1576 1577
1537 1537 1538 1540 1542 1544 1546 1547 1549 1550 1551 1552 1553 1555 1556 1557 1558 1560 1561 1562 1564 1564 1565 1565 1565 1567 1568 1569 1569 1570 1570 1570 1570 1570 1571 1571 1572 1573 1573 1573 1574 1574
1533 1534 1536 1538 1541 1543 1545 1546 1547 1547 1548 1549 1551 1552 1553 1554 1555 1556 1558 1559 1561 1562 1562 1563 1564 1565 1565 1566 1567 1568 1568 1568 1568 1568 1568 1569 1569 1570 1570 1571 1571 1571
1530 1531 1534 1537 1539 1541 1543 1545 1546 1546 1546 1547 1548 1549 1550 1552 1552 1553 1555 1556 1558 1559 1560 1560 1561 1562 1563 1564 1564 1565 1565 1566 1566 1566 1566 1566 1567 1567 1568 1568 1568 1568
1528 1529 1531 1535 1537 1538 1541 1543 1545 1546 1547 1547 1547 1547 1548 1549 1549 1550 1552 1554 1555 1556 1557 1558 1558 1559 1560 1561 1561 1562 1563 1563 1563 1563 1563 1564 1564 1564 1565 1565 1565 1565
1526 1527 1529 1532 1533 1536 1539 1541 1543 1545 1546 1547 1546 1545 1547 1548 1547 1548 1550 1551 1552 1553 1554 1555 1556 1556 1557 1558 1558 1559 1559 1559 1560 1560 1560 1561 1561 1561 1561 1562 1562 1562
1524 1526 1528 1529 1531 1534 1537 1539 1541 1542 1543 1544 1544 1544 1545 1547 1547 1547 1547 1548 1550 1551 1552 1552 1553 1553 1554 1555 1555 1555 1556 1556 1556 1557 1557 1557 1557 1558 1558 1558 1559 1559